| time (UTC) | temp C | wind direction | speed KPH | gust KPH | rain 1hr cm | rain 24hr cm | rain mn cm | humidity % | barometer mb |
| 20260510000109 | 10 | 360 | 0.0 | 4.8 | 0.00 | 1.12 | 1.12 | 63 | 1010.4 |
| 20260509234520 | 11 | 360 | 0.0 | 8.0 | 0.00 | 1.12 | 1.12 | 64 | 1010.0 |
| 20260509233005 | 11 | 360 | 1.6 | 6.4 | 0.00 | 1.12 | 1.12 | 64 | 1009.8 |
| 20260509231505 | 11 | 360 | 3.2 | 11.3 | 0.00 | 1.12 | 1.12 | 65 | 1009.9 |
| 20260509230011 | 11 | 360 | 4.8 | 14.5 | 0.00 | 1.12 | 1.12 | 65 | 1009.6 |
| 20260509224503 | 11 | 275 | 3.2 | 14.5 | 0.00 | 1.12 | 1.12 | 66 | 1009.6 |
| 20260509223001 | 11 | 360 | 3.2 | 9.7 | 0.00 | 1.12 | 1.12 | 66 | 1009.7 |
| 20260509221559 | 11 | 213 | 3.2 | 8.0 | 0.00 | 1.12 | 1.12 | 66 | 1009.9 |
| 20260509220057 | 11 | 237 | 1.6 | 8.0 | 0.03 | 1.12 | 1.12 | 66 | 1010.2 |
| 20260509214555 | 11 | 233 | 3.2 | 8.0 | 0.03 | 1.12 | 1.12 | 66 | 1010.2 |
| 20260509213058 | 11 | 243 | 1.6 | 4.8 | 0.05 | 1.12 | 1.12 | 66 | 1010.4 |
| 20260509211558 | 11 | 360 | 1.6 | 4.8 | 0.05 | 1.12 | 1.12 | 66 | 1010.5 |
| 20260509210054 | 11 | 236 | 3.2 | 8.0 | 0.05 | 1.09 | 1.09 | 66 | 1010.4 |
| 20260509204549 | 11 | 360 | 3.2 | 6.4 | 0.05 | 1.09 | 1.09 | 66 | 1010.6 |
| 20260509203047 | 11 | 360 | 3.2 | 8.0 | 0.05 | 1.07 | 1.07 | 66 | 1010.5 |
| 20260509201544 | 11 | 360 | 1.6 | 11.3 | 0.08 | 1.07 | 1.07 | 66 | 1010.5 |
| 20260509200041 | 10 | 238 | 1.6 | 8.0 | 0.08 | 1.04 | 1.04 | 66 | 1010.9 |
| 20260509194539 | 10 | 220 | 1.6 | 14.5 | 0.10 | 1.04 | 1.04 | 66 | 1011.0 |
| 20260509193039 | 10 | 220 | 3.2 | 9.7 | 0.13 | 1.02 | 1.02 | 66 | 1011.3 |
| 20260509191536 | 10 | 242 | 3.2 | 8.0 | 0.13 | 0.99 | 0.99 | 66 | 1011.3 |
| 20260509190039 | 10 | 258 | 3.2 | 14.5 | 0.15 | 0.97 | 0.97 | 66 | 1011.4 |
| 20260509184535 | 10 | 217 | 6.4 | 17.7 | 0.15 | 0.94 | 0.94 | 66 | 1011.5 |
| 20260509183042 | 11 | 360 | 3.2 | 11.3 | 0.10 | 0.89 | 0.89 | 66 | 1011.4 |
| 20260509181543 | 11 | 219 | 4.8 | 8.0 | 0.10 | 0.86 | 0.86 | 66 | 1011.4 |
| 20260509180034 | 11 | 219 | 3.2 | 11.3 | 0.08 | 0.81 | 0.81 | 66 | 1011.4 |
| 20260509174535 | 11 | 215 | 3.2 | 12.9 | 0.13 | 0.89 | 0.79 | 66 | 1011.5 |
| 20260509173033 | 11 | 229 | 3.2 | 12.9 | 0.23 | 0.89 | 0.79 | 66 | 1011.5 |
| 20260509171529 | 10 | 229 | 1.6 | 14.5 | 0.23 | 0.86 | 0.76 | 66 | 1011.4 |
| 20260509170027 | 10 | 225 | 3.2 | 9.7 | 0.23 | 0.84 | 0.71 | 66 | 1011.4 |
| 20260509164526 | 10 | 360 | 1.6 | 6.4 | 0.15 | 0.89 | 0.66 | 66 | 1011.5 |
| 20260509163031 | 11 | 360 | 0.0 | 4.8 | 0.05 | 0.79 | 0.56 | 66 | 1011.6 |
| 20260509161520 | 11 | 360 | 0.0 | 3.2 | 0.05 | 0.76 | 0.53 | 66 | 1011.5 |
| 20260509154618 | 10 | 360 | 1.6 | 4.8 | 0.05 | 0.71 | 0.51 | 66 | 1011.8 |
| 20260509153013 | 10 | 360 | 0.0 | 0.0 | 0.08 | 0.71 | 0.51 | 66 | 1011.9 |
| 20260509151511 | 10 | 188 | 0.0 | 0.0 | 0.08 | 0.71 | 0.48 | 66 | 1012.1 |
| 20260509150014 | 10 | 188 | 0.0 | 0.0 | 0.08 | 0.69 | 0.46 | 66 | 1012.3 |
| 20260509144517 | 10 | 83 | 0.0 | 0.0 | 0.10 | 0.69 | 0.46 | 66 | 1012.4 |
| 20260509143006 | 10 | 84 | 0.0 | 0.0 | 0.10 | 0.66 | 0.43 | 66 | 1012.4 |
| 20260509141504 | 10 | 83 | 0.0 | 0.0 | 0.10 | 0.64 | 0.41 | 66 | 1012.4 |
| 20260509140003 | 10 | 84 | 0.0 | 0.0 | 0.13 | 0.61 | 0.38 | 66 | 1012.4 |
| 20260509134501 | 10 | 83 | 0.0 | 0.0 | 0.13 | 0.58 | 0.36 | 66 | 1012.2 |
| 20260509133110 | 10 | 83 | 0.0 | 0.0 | 0.10 | 0.56 | 0.33 | 66 | 1012.2 |
| 20260509131559 | 10 | 83 | 0.0 | 0.0 | 0.10 | 0.53 | 0.30 | 66 | 1012.2 |
| 20260509130058 | 10 | 83 | 0.0 | 0.0 | 0.05 | 0.48 | 0.25 | 66 | 1012.2 |
| 20260509124557 | 9 | 83 | 0.0 | 0.0 | 0.03 | 0.46 | 0.23 | 66 | 1012.1 |
| 20260509123058 | 10 | 83 | 0.0 | 0.0 | 0.03 | 0.46 | 0.23 | 66 | 1012.1 |
| 20260509121554 | 9 | 83 | 0.0 | 0.0 | 0.00 | 0.43 | 0.20 | 66 | 1012.1 |
| 20260509120055 | 9 | 83 | 0.0 | 0.0 | 0.00 | 0.43 | 0.20 | 66 | 1012.2 |
| 20260509114549 | 8 | 83 | 0.0 | 0.0 | 0.00 | 0.43 | 0.20 | 66 | 1012.3 |
| 20260509113048 | 8 | 85 | 0.0 | 0.0 | 0.00 | 0.43 | 0.20 | 66 | 1012.3 |
| 20260509111549 | 8 | 360 | 0.0 | 0.0 | 0.00 | 0.43 | 0.20 | 66 | 1012.5 |
| 20260509110042 | 8 | 360 | 0.0 | 4.8 | 0.00 | 0.43 | 0.20 | 65 | 1012.4 |
| 20260509104543 | 8 | 360 | 0.0 | 0.0 | 0.00 | 0.43 | 0.20 | 65 | 1012.5 |
| 20260509103038 | 8 | 360 | 0.0 | 0.0 | 0.00 | 0.43 | 0.20 | 65 | 1012.6 |
| 20260509101548 | 8 | 360 | 0.0 | 0.0 | 0.00 | 0.43 | 0.20 | 65 | 1012.9 |
| 20260509100035 | 8 | 360 | 0.0 | 0.0 | 0.00 | 0.43 | 0.20 | 65 | 1012.7 |
| 20260509094538 | 8 | 360 | 0.0 | 1.6 | 0.00 | 0.43 | 0.20 | 64 | 1012.5 |
| 20260509093045 | 8 | 360 | 0.0 | 0.0 | 0.00 | 0.43 | 0.20 | 64 | 1012.8 |
| 20260509091535 | 7 | 360 | 0.0 | 3.2 | 0.03 | 0.43 | 0.20 | 64 | 1012.6 |
| 20260509090028 | 7 | 360 | 0.0 | 1.6 | 0.03 | 0.43 | 0.20 | 64 | 1012.9 |
| 20260509084541 | 7 | 360 | 0.0 | 0.0 | 0.03 | 0.43 | 0.20 | 63 | 1013.4 |
| 20260509083026 | 7 | 360 | 0.0 | 0.0 | 0.05 | 0.43 | 0.20 | 63 | 1013.3 |
| 20260509081535 | 7 | 360 | 0.0 | 1.6 | 0.05 | 0.41 | 0.18 | 62 | 1013.3 |
| 20260509080036 | 7 | 360 | 0.0 | 1.6 | 0.05 | 0.41 | 0.18 | 62 | 1013.3 |
| 20260509074525 | 7 | 360 | 1.6 | 4.8 | 0.08 | 0.41 | 0.18 | 61 | 1013.1 |
| 20260509073023 | 8 | 360 | 1.6 | 3.2 | 0.08 | 0.38 | 0.15 | 61 | 1013.1 |
| 20260509071522 | 8 | 360 | 0.0 | 1.6 | 0.08 | 0.36 | 0.13 | 61 | 1013.4 |
| 20260509070021 | 8 | 360 | 0.0 | 0.0 | 0.08 | 0.36 | 0.13 | 60 | 1013.4 |
| 20260509064520 | 7 | 360 | 0.0 | 1.6 | 0.08 | 0.33 | 0.10 | 60 | 1013.6 |
| 20260509063020 | 7 | 360 | 0.0 | 0.0 | 0.08 | 0.30 | 0.08 | 59 | 1014.1 |
| 20260509061518 | 7 | 360 | 0.0 | 3.2 | 0.05 | 0.28 | 0.05 | 59 | 1014.3 |
| 20260509060016 | 7 | 360 | 0.0 | 0.0 | 0.03 | 0.41 | 0.03 | 59 | 1014.2 |
| 20260509054518 | 7 | 360 | 0.0 | 3.2 | 0.03 | 0.41 | 0.03 | 59 | 1013.5 |
| 20260509053020 | 7 | 360 | 1.6 | 4.8 | 0.00 | 0.38 | 0.00 | 59 | 1013.3 |
| 20260509051512 | 7 | 360 | 0.0 | 1.6 | 0.00 | 0.38 | 0.00 | 59 | 1013.6 |
| 20260509050014 | 7 | 360 | 1.6 | 4.8 | 0.00 | 0.71 | 0.00 | 59 | 1013.5 |
| 20260509044510 | 7 | 360 | 1.6 | 6.4 | 0.00 | 0.71 | 0.00 | 59 | 1013.6 |
| 20260509043010 | 7 | 360 | 0.0 | 0.0 | 0.00 | 0.71 | 0.00 | 59 | 1013.8 |
| 20260509041510 | 7 | 360 | 0.0 | 0.0 | 0.00 | 0.71 | 0.00 | 60 | 1014.0 |
| 20260509040003 | 7 | 360 | 0.0 | 0.0 | 0.00 | 0.79 | 0.71 | 60 | 1014.0 |
| 20260509034503 | 7 | 360 | 0.0 | 0.0 | 0.00 | 0.79 | 0.71 | 61 | 1014.1 |
| 20260509033003 | 7 | 360 | 0.0 | 0.0 | 0.00 | 0.79 | 0.71 | 61 | 1013.9 |
| 20260509031502 | 7 | 360 | 0.0 | 0.0 | 0.00 | 0.79 | 0.71 | 61 | 1013.9 |
| 20260509030002 | 7 | 360 | 0.0 | 0.0 | 0.00 | 0.79 | 0.71 | 61 | 1013.8 |
| 20260509024501 | 7 | 360 | 0.0 | 0.0 | 0.00 | 0.79 | 0.71 | 61 | 1013.7 |
| 20260509023107 | 8 | 239 | 0.0 | 0.0 | 0.00 | 0.79 | 0.71 | 60 | 1014.1 |
| 20260509021600 | 8 | 238 | 0.0 | 0.0 | 0.00 | 0.79 | 0.71 | 60 | 1014.0 |
| 20260509021502 | 8 | 239 | 0.0 | 0.0 | 0.00 | 0.79 | 0.71 | 60 | 1014.0 |
| 20260509020059 | 8 | 239 | 0.0 | 0.0 | 0.00 | 0.79 | 0.71 | 60 | 1013.9 |
| 20260509014559 | 8 | 239 | 0.0 | 0.0 | 0.00 | 0.79 | 0.71 | 61 | 1013.8 |
| 20260509013112 | 8 | 239 | 0.0 | 0.0 | 0.00 | 0.79 | 0.71 | 60 | 1013.7 |
| 20260509011558 | 8 | 239 | 0.0 | 0.0 | 0.00 | 0.79 | 0.71 | 60 | 1013.4 |
| 20260509010057 | 8 | 239 | 0.0 | 0.0 | 0.00 | 0.79 | 0.71 | 60 | 1013.4 |
| 20260509004611 | 9 | 239 | 0.0 | 0.0 | 0.00 | 0.79 | 0.71 | 59 | 1013.1 |
| 20260509003056 | 9 | 239 | 0.0 | 0.0 | 0.00 | 0.79 | 0.71 | 59 | 1012.8 |
| 20260509001555 | 9 | 239 | 0.0 | 0.0 | 0.00 | 0.79 | 0.71 | 59 | 1013.1 |